This is the latest recevied weather packets stored in our database for station/object K7SKM. If no packets are shown the sender has not sent any weather packets the latest 10 day(s).
| Time | Temp. | Humidity | Pressure | Rain* | Wind** | Luminosity | Snow |
|---|---|---|---|---|---|---|---|
| 1778114845 | 15.56° C | 65% | 1025.1 hPa | 0 mm | - | 38 W/m² | - |
| 1778114544 | 15.56° C | 66% | 1024.8 hPa | 0 mm | - | 57 W/m² | - |
| 1778114239 | 15.56° C | 66% | 1024.9 hPa | 0 mm | - | 66 W/m² | - |
| 1778113935 | 15.56° C | 65% | 1025.3 hPa | 0 mm | - | 42 W/m² | - |
| 1778113631 | 15.56° C | 65% | 1025 hPa | 0 mm | - | 64 W/m² | - |
| 1778113327 | 15.56° C | 65% | 1025.1 hPa | 0 mm | - | 91 W/m² | - |
| 1778113024 | 15.56° C | 65% | 1025 hPa | 0 mm | - | 86 W/m² | - |
| 1778112721 | 15° C | 65% | 1025.1 hPa | 0 mm | - | 86 W/m² | - |
| 1778112417 | 15.56° C | 65% | 1024.8 hPa | 0 mm | - | 90 W/m² | - |
| 1778112113 | 15.56° C | 65% | 1025 hPa | 0 mm | - | 107 W/m² | - |
| 1778111810 | 15.56° C | 65% | 1025 hPa | 0 mm | - | 69 W/m² | - |
| 1778111506 | 16.11° C | 64% | 1025 hPa | 0 mm | - | 75 W/m² | - |
| 1778111203 | 15.56° C | 64% | 1024.9 hPa | 0 mm | - | 70 W/m² | - |
| 1778110900 | 15.56° C | 63% | 1024.9 hPa | 0 mm | - | 87 W/m² | - |
| 1778110597 | 15.56° C | 63% | 1025 hPa | 0 mm | - | 107 W/m² | - |
| 1778110294 | 15.56° C | 64% | 1024.9 hPa | 0 mm | - | 141 W/m² | - |
| 1778109990 | 15.56° C | 65% | 1025.2 hPa | 0 mm | - | 170 W/m² | - |
| 1778109686 | 15.56° C | 66% | 1025 hPa | 0 mm | - | 97 W/m² | - |
| 1778109383 | 15° C | 66% | 1025.1 hPa | 0 mm | - | 65 W/m² | - |
| 1778109081 | 15° C | 66% | 1025.2 hPa | 0 mm | - | 63 W/m² | - |
| 1778108778 | 15° C | 66% | 1025.2 hPa | 0 mm | - | 66 W/m² | - |
| 1778108475 | 15° C | 66% | 1025.2 hPa | 0 mm | - | 77 W/m² | - |
| 1778108171 | 15° C | 66% | 1025.1 hPa | 0 mm | - | 61 W/m² | - |
| 1778107868 | 15° C | 66% | 1025.1 hPa | 0 mm | - | 68 W/m² | - |
| 1778107565 | 15.56° C | 65% | 1025.2 hPa | 0 mm | - | 65 W/m² | - |
* Rain latest hour (hover to see other rain measurements)
** Current wind speed in m/s (hover to see current wind gust speed)